Wind_Speed
59 60 61 59 56 55 56 57 57 56 55 55 55 54 53 52 50 46 41 38 37 37 37 36 34 31 30 27 26 26 25 24 25 24 23 24 24 24 24 24 24 23 22 22 20 17 15 15 17 18 19 20 20 20 20 19 19 20 20 19 20 20 17 14 14 15 16 19 19 15 13 13 13 13 13 13 14 14 14 14 13 13 14 14 14 12
60 60 58 54 52 51 53 55 55 56 54 53 52 53 52 51 49 46 42 39 39 39 38 37 35 33 32 29 27 26 26 26 25 22 21 22 22 22 22 22 21 21 20 19 17 15 15 16 17 18 19 20 20 19 19 19 19 20 21 20 20 19 18 16 15 15 17 19 17 13 13 13 12 12 12 13 13 13 12 12 12 13 14 14 13 12
59 57 53 52 53 53 53 53 53 54 52 50 51 52 51 49 48 47 44 41 41 41 39 38 37 35 33 31 28 28 29 28 25 22 20 20 20 20 20 19 19 18 17 16 15 14 14 15 16 17 19 20 20 19 17 18 19 20 21 20 19 18 18 17 16 17 18 18 15 13 14 14 12 12 12 12 12 10 9 10 11 12 12 12 12 13
57 54 52 54 56 54 52 51 52 53 52 51 50 51 51 49 48 47 45 43 43 42 40 39 37 36 34 32 30 30 31 30 27 23 20 18 18 17 17 17 16 16 15 16 15 14 13 14 16 18 20 20 20 19 18 18 20 21 21 21 20 18 18 17 17 18 17 15 14 14 15 14 13 12 12 11 10 8 7 7 8 10 11 12 13 14
54 53 55 57 55 53 51 51 52 52 52 52 51 51 50 49 47 46 44 43 42 42 41 39 39 37 36 34 32 31 31 31 29 25 20 17 15 14 15 14 14 15 17 18 17 15 14 16 17 19 21 20 19 19 19 19 19 20 21 21 20 18 16 16 17 18 17 14 14 14 14 12 12 11 10 10 8 7 6 6 7 9 11 12 12 13
54 55 55 54 52 51 51 51 50 50 51 51 51 50 49 48 47 45 44 42 41 41 40 40 40 39 38 37 35 33 32 31 29 26 21 17 14 13 13 13 14 16 18 18 17 16 15 16 17 20 19 17 17 18 18 17 17 17 18 19 18 16 15 15 17 18 17 15 14 13 11 10 9 9 9 8 8 8 6 6 8 9 10 11 12 13
54 55 53 51 51 49 49 49 48 48 48 49 50 48 47 47 46 44 43 42 40 40 39 39 38 39 39 39 36 34 33 31 30 27 23 17 14 13 13 13 15 17 18 18 17 16 16 16 17 18 16 14 15 16 17 17 17 17 17 17 16 14 14 14 15 16 17 16 15 13 10 9 8 9 9 9 10 8 7 8 8 8 9 10 12 13
52 54 52 51 50 49 49 48 46 46 46 48 48 45 45 45 44 43 42 41 40 39 39 38 37 40 41 40 37 35 34 33 31 28 24 17 13 13 13 14 16 17 18 18 18 17 16 15 17 17 15 14 15 17 18 18 19 19 18 17 16 14 13 14 15 15 16 16 15 13 11 10 9 9 9 11 10 9 9 9 8 8 9 11 12 13
51 53 51 50 49 49 47 45 44 45 45 46 46 44 43 43 43 42 40 40 41 41 42 40 40 44 44 41 38 37 36 34 30 27 23 17 13 12 12 14 15 16 17 17 17 15 14 14 15 17 16 16 18 18 18 18 18 18 17 16 15 15 15 15 15 15 16 17 16 13 12 12 11 10 11 11 11 10 10 10 8 9 11 13 13 14
52 51 49 49 48 46 44 43 42 43 45 46 44 42 42 42 42 41 40 40 42 44 44 42 43 46 46 43 40 40 38 34 28 26 24 19 15 12 10 11 12 14 16 16 16 15 15 16 16 17 18 18 19 18 17 17 16 16 15 15 15 16 17 17 15 16 16 16 15 13 13 12 11 11 12 12 11 11 11 10 9 11 13 14 15 15
52 51 50 49 46 44 43 42 42 43 44 44 42 41 42 42 42 41 41 40 42 45 44 42 43 45 46 44 43 42 37 29 23 22 22 19 15 13 11 12 12 14 16 16 16 16 17 17 18 18 18 17 17 16 16 16 15 15 15 16 16 17 17 16 15 16 16 15 14 13 13 13 13 13 12 11 11 11 10 10 10 12 14 15 15 14
52 51 49 47 47 47 44 43 42 42 43 42 42 42 42 43 43 42 42 42 44 45 42 41 43 45 48 46 42 40 35 28 23 21 21 18 15 16 16 15 15 16 18 18 17 17 17 17 17 17 16 15 15 15 15 16 15 16 17 17 17 17 17 16 16 16 15 14 14 15 15 15 14 13 12 11 10 10 10 10 11 13 14 14 14 14
52 50 48 49 51 49 46 44 43 43 43 42 43 44 44 45 44 44 44 43 45 44 40 41 43 46 49 45 40 38 33 28 24 21 20 17 16 19 19 18 17 18 18 18 17 16 16 16 16 16 15 14 14 14 15 16 17 18 18 17 17 17 16 16 17 17 16 15 16 16 16 15 13 12 12 11 11 10 10 10 11 12 13 14 14 14
51 51 51 52 52 50 48 47 47 47 47 45 46 47 48 48 47 47 45 44 45 44 41 41 44 48 49 44 39 36 31 26 20 17 18 18 20 21 21 19 18 18 18 17 16 15 15 15 16 17 16 15 14 14 16 16 18 18 18 17 17 17 17 17 18 18 17 17 17 16 15 14 13 12 12 12 11 11 10 10 12 13 13 13 14 14
51 51 50 49 49 49 49 47 45 46 46 45 46 48 50 49 48 47 45 44 45 44 43 43 45 50 49 43 39 34 32 30 24 20 22 24 24 21 19 19 17 16 16 16 16 15 15 15 16 17 16 15 15 15 16 17 18 18 18 17 17 17 17 18 19 18 18 18 17 16 15 13 13 13 12 12 12 12 11 11 12 13 13 13 14 16
49 48 46 46 47 48 48 47 44 43 43 43 46 49 50 49 45 44 43 43 43 43 45 46 47 50 47 42 38 34 34 35 31 27 28 27 22 18 17 17 16 15 15 15 14 15 15 16 16 16 15 15 16 16 17 17 17 17 17 16 16 17 17 18 19 18 18 18 17 15 14 13 13 13 13 13 14 14 12 11 12 12 13 14 15 17
48 47 46 46 46 46 47 46 44 44 43 43 46 50 49 46 44 43 43 43 43 45 47 46 47 48 45 42 40 36 36 36 33 31 29 25 19 17 17 17 16 17 16 15 14 14 16 17 17 16 16 16 17 17 17 17 17 17 16 16 16 17 17 18 18 18 18 17 16 14 13 13 14 14 14 14 14 13 11 10 11 12 13 15 17 19
48 47 47 46 45 44 44 43 42 42 42 43 47 49 48 46 46 45 44 45 45 46 47 46 47 47 45 43 40 37 36 35 33 32 28 21 16 14 16 16 17 18 18 15 14 15 16 18 18 17 18 18 18 18 18 17 17 17 17 17 17 17 18 17 17 17 18 16 14 13 13 14 14 14 14 13 12 11 10 11 12 13 15 17 19 20
49 48 47 46 44 42 42 42 42 42 41 42 44 47 49 50 50 48 47 47 47 47 47 45 46 47 45 42 38 35 35 33 32 31 24 15 11 12 13 12 13 14 14 14 14 15 16 17 18 18 19 19 19 19 18 17 17 17 17 17 17 16 16 16 17 17 16 14 13 13 14 14 14 13 12 10 10 10 10 12 13 15 16 18 19 21
49 48 46 46 43 41 42 44 45 44 43 43 44 46 48 49 48 48 48 48 47 46 44 43 44 46 44 40 34 31 31 30 30 27 18 12 12 13 11 9 9 9 11 13 15 16 17 17 18 19 19 19 20 19 18 18 18 18 18 17 16 16 16 17 17 17 16 15 13 13 13 13 12 10 9 9 9 10 11 12 14 16 17 18 20 22
48 46 45 45 43 42 43 43 44 44 45 46 47 48 49 50 50 49 49 48 47 43 37 37 41 42 41 37 32 29 28 28 26 20 16 17 17 14 11 9 8 9 10 13 15 16 17 18 18 18 19 20 20 20 18 17 18 18 18 17 16 17 18 18 18 18 17 15 13 12 12 12 11 10 9 9 10 11 12 14 15 17 18 19 21 23
47 45 42 42 42 42 41 39 40 42 43 43 45 48 50 52 53 52 52 51 49 44 35 31 33 33 35 35 31 29 29 28 26 23 22 23 22 19 17 15 13 13 13 13 14 14 15 16 17 18 19 20 20 19 18 18 19 19 18 17 17 18 18 19 19 19 17 15 14 13 13 12 12 12 11 11 11 12 13 15 17 18 19 21 22 24
43 43 40 39 40 39 37 37 37 38 39 39 41 45 48 51 52 53 54 52 50 47 38 31 28 27 29 30 28 29 31 30 29 28 27 26 25 24 22 20 18 17 17 16 15 15 14 14 15 18 19 20 20 19 18 19 20 20 19 18 18 18 18 19 19 19 18 16 16 15 14 15 15 14 13 12 13 14 15 17 18 20 21 23 24 26
40 40 37 37 39 38 35 34 34 35 37 39 41 44 46 48 50 50 51 51 49 48 43 35 29 26 27 28 27 27 29 31 31 31 29 28 27 26 24 20 19 18 19 17 16 16 15 14 14 17 19 20 20 19 19 20 21 20 19 18 18 18 19 19 20 20 19 18 18 17 16 17 16 15 15 14 14 15 16 18 20 21 23 25 26 27
37 37 35 35 38 38 35 33 34 36 39 41 43 45 47 47 47 47 48 48 49 49 46 40 34 29 27 28 30 29 29 31 32 32 31 30 29 27 25 22 20 20 21 19 18 17 16 14 14 16 18 19 20 20 20 21 21 21 19 18 18 19 20 20 21 21 20 20 19 18 18 17 17 16 16 16 16 17 18 20 21 23 24 26 28 29
35 35 34 34 36 39 39 37 38 38 40 42 44 47 48 47 47 47 48 49 49 48 45 43 40 35 31 29 29 31 32 33 34 33 32 32 31 28 26 24 21 20 21 22 21 20 18 17 16 16 18 19 20 20 21 21 21 21 19 18 19 19 20 21 21 21 21 20 19 19 18 18 18 18 18 18 19 20 21 23 23 24 26 28 29 30
37 36 35 33 34 37 37 35 35 37 39 43 46 48 48 48 47 46 48 51 50 46 40 38 38 38 36 33 30 30 32 34 35 35 35 34 32 29 26 24 22 21 21 23 23 22 21 19 19 19 20 20 21 22 22 22 22 21 20 19 19 20 20 21 21 21 20 20 19 19 19 20 20 20 19 20 21 22 24 25 26 27 28 29 31 31
39 38 36 34 33 34 32 32 34 37 41 44 47 47 46 47 46 44 47 50 49 46 40 33 33 36 36 35 32 31 32 33 34 34 34 32 29 25 23 23 24 23 22 22 23 23 22 21 21 21 21 22 23 23 23 23 23 22 20 19 20 20 20 21 21 21 21 21 20 20 21 21 21 21 22 22 23 24 26 28 29 30 31 31 32 32
40 39 37 34 33 33 32 33 35 38 42 45 46 46 46 47 47 45 47 50 48 46 43 34 29 32 33 32 31 30 29 31 31 29 27 25 23 22 21 22 22 23 23 23 23 23 22 22 22 23 23 24 24 24 24 24 23 22 20 20 20 21 21 22 22 22 22 22 22 22 22 22 23 23 24 25 26 27 28 30 31 32 33 33 33 34
41 39 37 34 33 33 33 34 37 39 43 45 46 46 45 47 47 44 45 49 48 45 43 37 30 28 29 28 27 26 25 26 26 24 22 22 20 20 20 20 21 23 24 25 24 23 22 22 22 23 23 24 24 24 24 24 24 23 21 21 22 22 23 24 24 24 24 24 24 24 24 24 25 26 27 28 29 30 31 32 33 34 34 34 34 35
41 38 38 36 33 33 33 34 37 40 43 45 46 46 46 46 47 45 45 49 49 45 41 39 33 27 26 25 22 22 23 24 23 23 21 19 18 19 19 19 19 21 23 24 24 23 23 22 22 22 22 23 24 25 25 25 25 24 22 22 22 24 25 26 26 27 27 26 26 26 26 27 27 28 29 30 31 33 34 35 35 35 35 35 35 35
41 37 38 37 34 34 33 34 37 40 44 45 45 46 48 47 46 47 48 48 49 45 41 38 35 30 27 27 25 23 22 21 20 19 17 15 16 17 17 16 16 18 19 21 22 22 22 21 21 21 21 22 24 24 24 24 24 23 23 23 24 25 26 27 28 28 28 28 27 28 28 29 30 31 32 33 34 35 36 37 37 36 36 35 36 35
41 37 37 38 36 35 35 35 37 41 44 46 45 45 47 49 47 46 48 49 49 48 43 37 35 32 29 28 28 27 25 23 20 16 14 13 15 17 17 15 15 16 18 19 20 20 21 20 20 20 20 20 22 22 23 23 23 23 24 24 25 26 27 28 29 29 29 29 29 30 31 32 33 34 35 36 37 38 38 38 38 37 36 36 36 35
42 38 38 38 36 35 36 37 38 42 45 45 45 45 46 47 45 43 44 46 47 48 46 41 36 34 32 30 30 29 27 25 22 19 18 17 17 19 21 20 18 18 19 19 20 20 20 20 20 19 19 19 20 20 21 22 23 24 25 26 26 26 27 29 30 30 30 30 31 32 33 34 35 36 36 37 38 38 39 39 37 36 36 37 36 33
43 38 37 38 36 33 33 34 37 41 43 43 44 45 46 46 43 39 39 41 43 45 46 45 41 38 36 34 33 31 29 27 26 25 24 24 23 23 22 21 19 19 20 21 22 22 21 21 20 19 20 20 21 21 22 23 24 25 26 27 27 27 28 29 30 31 32 32 33 34 35 36 36 36 37 37 38 38 38 38 37 37 37 36 34 32
42 38 36 37 36 33 32 32 33 35 37 40 42 43 45 45 42 40 38 39 41 43 43 44 44 41 38 36 35 34 32 31 30 29 27 26 25 24 21 20 19 19 20 21 23 23 23 22 21 20 21 21 22 23 24 24 25 26 27 28 28 28 29 30 31 33 33 34 35 36 36 36 36 37 37 37 37 37 37 38 38 37 37 35 33 31
40 38 35 35 35 34 34 33 32 31 32 37 41 43 44 44 43 41 39 38 40 41 41 41 42 42 39 37 36 36 35 34 32 29 27 26 26 25 23 22 22 20 19 19 21 23 23 21 21 22 22 23 24 25 25 26 27 28 28 28 29 29 30 31 32 34 35 36 37 37 37 37 37 37 38 38 37 37 38 38 38 37 35 33 32 30
39 38 36 36 35 34 34 33 32 32 33 35 40 45 46 45 44 42 39 39 40 40 40 39 39 40 40 39 38 37 35 34 32 29 26 25 25 24 24 25 25 23 22 22 23 25 26 26 26 26 26 26 27 27 27 28 29 29 29 30 30 31 32 33 34 35 36 37 38 38 38 38 38 38 38 38 38 38 38 38 37 35 34 32 31 30
40 40 38 37 37 35 34 33 31 31 32 34 39 45 47 46 45 44 41 40 40 39 39 38 36 37 38 38 36 36 35 35 32 28 25 25 25 25 27 28 28 28 28 28 28 29 30 30 30 29 28 29 29 29 29 30 30 30 30 31 32 32 33 35 36 37 37 38 38 38 38 38 38 38 38 38 38 38 38 37 35 34 33 31 31 30
35 40 39 38 37 35 33 32 31 29 30 32 36 43 47 46 44 45 45 44 42 39 38 38 36 35 35 35 36 36 36 34 31 28 27 27 27 28 30 31 32 32 33 33 32 31 31 31 30 30 30 30 31 31 31 32 32 32 32 32 33 33 35 36 36 37 37 37 37 37 37 38 38 38 37 37 37 37 36 35 34 33 33 32 31 31
25 32 35 36 35 33 30 30 30 29 29 30 33 38 43 45 45 47 49 48 45 42 40 39 37 36 35 35 36 37 35 33 32 31 31 30 29 30 31 32 34 35 35 35 34 33 32 32 31 31 31 31 32 32 33 34 34 34 33 33 33 34 35 35 36 36 36 36 36 36 36 37 37 37 37 36 36 35 35 34 34 33 33 32 32 32
24 25 28 30 31 31 29 28 29 29 28 28 31 34 36 37 39 43 47 49 48 46 45 44 42 41 39 38 38 38 36 35 35 34 32 30 29 30 31 33 35 36 36 36 36 36 35 34 33 32 32 32 33 33 34 34 34 34 34 34 34 35 35 36 36 36 36 36 36 37 37 37 37 37 37 36 35 35 34 33 33 33 32 32 32 32
28 26 25 26 27 29 30 29 29 28 26 25 29 31 31 30 30 30 34 39 42 44 44 44 43 43 42 41 41 40 39 39 38 35 34 32 31 31 32 34 35 35 35 36 36 36 35 34 34 33 33 33 32 33 33 34 34 34 34 34 34 35 35 36 36 36 36 37 37 37 37 37 37 37 36 36 35 35 34 33 32 32 31 31 31 32
30 29 29 28 27 26 28 29 29 29 27 26 26 27 28 28 27 25 26 29 32 35 37 39 39 38 37 37 37 38 38 38 37 35 34 33 31 30 31 32 32 32 32 33 34 34 33 32 32 32 32 32 32 32 33 34 34 34 34 34 35 35 36 36 36 36 36 36 36 36 37 37 36 36 35 35 35 34 33 32 32 32 32 31 32 33
29 30 30 30 29 27 26 26 27 27 27 27 26 26 27 27 25 24 24 24 25 27 30 32 33 33 32 31 31 32 33 33 33 33 32 32 31 30 30 30 30 29 29 30 31 31 31 31 31 31 31 32 32 33 34 34 34 34 34 35 35 36 36 36 36 36 36 36 37 37 37 36 36 35 34 34 33 32 32 32 33 33 33 33 33 34
31 30 30 30 31 30 28 27 27 26 26 25 24 24 26 26 25 24 22 22 22 24 26 27 28 28 28 27 28 28 29 30 30 31 31 31 31 31 30 30 30 30 29 30 30 31 31 31 31 30 31 32 32 32 32 33 33 34 34 35 35 36 35 35 36 36 36 37 37 37 36 36 35 34 34 33 32 32 32 32 33 32 32 33 33 33
33 33 32 32 33 33 32 30 30 28 28 27 26 25 25 26 26 26 26 25 25 25 26 26 26 26 26 27 27 28 29 30 30 30 31 31 31 31 30 30 30 30 30 30 31 32 33 33 31 31 31 32 31 31 31 32 33 33 34 35 36 36 35 36 36 37 37 37 37 37 36 36 35 35 34 33 33 32 32 33 33 32 32 33 33 33
35 35 35 36 36 35 34 33 33 32 32 31 30 29 29 30 30 31 31 30 28 28 29 28 28 28 29 30 30 31 31 32 31 31 31 30 30 29 30 30 31 31 30 30 31 32 32 32 31 31 31 32 32 31 32 32 33 34 35 36 36 36 37 37 37 37 37 37 37 37 37 36 36 36 35 34 34 34 34 35 34 33 33 34 34 33
34 35 36 38 39 38 38 37 36 35 34 34 34 33 33 34 34 34 34 33 32 32 32 32 32 33 32 32 31 30 31 31 31 31 30 29 29 29 30 30 30 29 28 30 30 30 29 30 31 32 31 32 32 32 32 33 33 35 36 37 37 37 37 37 37 37 37 37 37 37 38 38 37 37 36 36 36 35 35 36 35 35 35 35 35 34
31 33 35 36 36 37 38 37 37 36 35 35 36 35 35 34 35 35 35 35 35 35 35 35 35 34 33 33 31 30 30 30 30 30 30 29 28 28 28 28 28 28 28 29 29 28 28 28 30 31 32 32 33 33 33 33 34 35 37 37 38 38 38 37 37 37 37 38 38 39 39 39 38 38 37 37 37 36 36 36 35 35 35 35 35 34
26 29 30 30 30 31 33 34 35 34 35 35 36 35 33 32 33 34 34 34 35 36 36 36 36 35 34 34 34 33 33 32 31 30 30 29 29 28 28 28 28 28 29 29 29 28 28 29 31 32 33 34 34 34 34 34 35 36 37 38 38 38 38 37 37 37 38 39 39 40 40 40 39 39 39 38 38 37 37 36 35 35 36 35 34 34
Wind_Direction
220 222 223 225 227 229 229 229 229 228 227 227 228 229 230 231 232 229 226 226 229 232 234 237 239 240 240 239 239 243 248 250 249 247 247 249 251 252 254 255 257 259 258 261 267 275 279 279 278 278 278 278 278 279 280 279 275 271 272 270 267 268 272 275 274 274 273 270 266 261 263 269 269 269 271 270 269 268 266 266 266 268 268 268 268 264
219 221 224 225 227 227 227 227 227 227 227 227 228 229 230 230 231 229 226 224 228 231 233 234 236 237 236 235 233 236 243 248 248 245 243 242 244 247 249 251 253 256 259 264 270 276 279 280 281 283 283 282 283 286 285 280 277 275 274 273 272 271 272 270 270 273 272 268 265 267 272 270 265 263 263 262 262 261 260 258 259 261 263 265 261 256
219 222 223 223 222 222 223 223 225 225 225 225 226 228 229 228 229 228 225 222 224 228 231 233 234 235 236 234 232 232 236 241 242 238 236 238 241 246 248 251 253 258 264 268 271 274 277 278 279 282 283 283 285 287 285 279 275 275 275 275 275 274 270 266 269 272 266 264 268 273 274 269 260 256 256 257 257 255 254 253 255 255 257 261 263 268
220 221 220 219 219 219 219 220 222 222 222 223 224 226 227 226 227 227 224 221 222 224 227 230 233 235 236 234 232 231 233 237 239 236 233 236 241 247 251 254 256 261 266 267 268 270 272 274 276 277 278 280 282 283 280 274 271 271 272 273 273 271 268 265 266 267 261 261 267 268 267 264 255 253 256 255 249 241 237 240 247 250 255 264 272 277
220 220 218 217 217 217 216 218 219 220 221 221 221 223 224 224 224 225 224 222 222 223 224 227 231 233 234 233 232 232 232 234 238 237 233 234 240 251 257 259 261 262 263 265 267 270 272 276 279 281 281 282 282 281 278 273 270 269 267 266 267 266 265 262 260 261 259 258 259 258 256 253 250 252 254 247 230 210 210 229 248 252 256 263 266 265
217 218 218 217 217 215 215 216 218 220 220 220 220 221 222 222 222 222 223 223 222 223 223 225 229 231 232 232 232 233 233 232 235 235 232 233 240 252 260 262 260 260 262 266 270 273 274 278 283 285 285 283 281 278 276 273 269 265 261 261 262 262 261 258 254 253 255 257 253 248 247 247 247 247 243 231 210 199 216 246 251 248 251 254 253 252
215 217 216 216 216 215 215 216 217 218 219 219 220 220 220 221 220 220 221 222 222 222 223 225 230 233 233 233 232 234 234 231 231 231 230 233 243 253 257 254 253 257 262 268 273 276 277 280 283 285 281 275 276 276 274 271 267 265 263 261 259 259 260 255 247 246 251 251 244 242 247 247 240 236 230 217 206 214 244 255 246 244 246 247 247 250
214 215 214 213 214 213 214 215 216 217 218 219 218 217 219 219 219 219 219 221 221 220 223 224 227 231 232 232 233 234 234 233 230 229 229 232 243 251 251 248 250 256 262 268 275 279 282 281 280 278 270 262 267 273 273 270 268 268 266 263 260 257 254 248 242 243 245 238 234 241 248 241 233 230 224 217 220 237 251 247 243 246 248 249 253 258
212 214 212 211 212 212 213 214 214 215 215 216 215 213 215 216 217 217 217 219 220 220 220 219 221 227 228 227 230 232 232 232 230 229 231 234 238 241 243 246 250 257 262 269 274 277 279 277 277 274 264 257 263 270 272 269 268 269 265 261 258 252 246 244 243 241 235 230 234 244 243 238 235 230 225 229 239 249 247 242 243 249 253 256 261 266
210 211 211 210 210 210 210 210 211 213 214 213 210 209 210 212 213 214 215 217 220 221 220 217 219 226 228 224 226 229 230 230 232 233 234 234 231 230 237 244 249 258 263 267 270 273 276 274 273 273 266 258 260 266 267 266 265 265 261 258 257 251 246 245 242 235 230 232 239 243 238 237 235 231 233 240 245 245 241 240 244 250 258 262 265 270
208 208 208 208 208 208 207 207 208 210 212 210 206 204 206 209 211 212 214 216 220 221 219 218 220 226 229 225 224 228 229 230 233 235 234 231 231 231 236 246 251 257 260 262 267 273 277 275 271 268 263 257 257 261 262 260 258 256 256 257 257 254 250 246 237 229 231 238 241 238 237 238 237 237 241 242 239 239 241 243 248 255 261 265 269 274
206 207 205 204 204 205 204 205 207 209 210 207 203 201 202 206 209 212 214 215 218 218 215 220 225 227 231 228 225 228 229 225 224 226 227 228 233 235 238 249 257 259 260 262 267 272 275 273 266 258 254 252 252 255 254 252 249 251 253 255 255 253 250 241 232 229 234 240 240 239 242 242 240 241 242 241 239 241 245 249 253 259 263 268 272 277
206 206 204 202 203 203 202 202 203 206 208 204 201 199 199 203 207 210 213 214 216 216 214 220 225 228 232 231 228 228 228 224 221 224 226 227 235 239 241 251 260 261 261 262 264 267 270 268 257 248 246 246 244 244 245 244 245 248 251 253 253 250 244 235 231 234 238 240 240 241 241 239 237 239 240 241 242 244 248 253 258 263 267 272 277 283
205 204 203 202 201 200 201 202 202 205 205 201 200 200 200 202 205 207 210 212 215 216 216 218 222 227 231 231 228 227 224 217 211 218 228 231 236 239 242 251 259 261 262 261 259 260 264 261 252 246 244 240 237 238 239 240 243 247 250 252 252 249 241 234 234 237 240 241 240 237 235 232 232 236 240 244 248 250 254 259 264 268 273 280 287 293
205 205 203 202 201 200 200 201 204 207 206 200 199 201 202 203 206 207 207 210 213 216 217 215 219 226 229 229 228 224 220 216 207 209 224 231 235 239 246 255 259 259 259 255 252 252 254 253 249 245 240 236 236 235 233 236 240 244 248 250 251 248 242 236 237 240 242 240 235 231 230 230 233 239 245 248 251 254 258 263 268 275 284 292 296 298
205 205 204 203 202 201 200 200 202 206 207 202 198 201 204 204 205 206 206 208 212 216 218 216 220 227 229 229 227 221 221 222 218 218 225 233 239 244 252 256 251 247 249 247 245 246 248 249 249 243 234 233 234 231 230 235 240 244 247 248 249 247 243 241 241 241 238 233 229 227 229 233 237 240 243 246 250 256 262 268 275 284 293 296 298 299
203 203 203 204 203 202 201 200 200 203 204 201 199 204 207 203 201 203 203 207 211 216 219 218 220 227 229 229 227 223 223 225 225 227 230 235 242 248 254 257 250 245 246 241 238 243 246 246 245 237 230 232 231 227 229 235 239 244 247 248 248 247 245 243 241 236 232 229 226 227 230 234 236 237 241 246 253 262 271 277 283 290 294 296 297 298
202 202 202 203 203 203 203 201 201 204 203 200 200 205 204 197 197 201 202 205 210 215 220 220 221 225 227 229 228 224 224 226 228 232 234 237 244 251 255 256 251 246 242 236 235 243 248 246 240 230 227 231 228 225 229 234 238 243 247 249 250 248 247 243 238 234 232 229 225 225 227 231 233 237 242 249 257 267 277 284 288 291 293 294 295 298
200 201 201 202 201 202 203 201 200 203 203 202 202 202 199 195 197 199 199 204 209 215 220 222 223 225 226 229 230 227 227 229 231 235 237 237 236 237 242 245 245 243 238 234 236 242 246 245 238 227 225 228 226 227 231 233 238 243 248 251 250 247 242 237 237 236 233 228 225 224 225 228 233 237 243 252 262 273 281 285 288 290 292 295 299 304
199 199 200 202 201 202 204 202 200 201 201 200 199 199 198 199 200 199 199 204 209 215 221 225 226 226 227 228 230 231 231 233 236 239 236 219 212 219 226 233 240 241 234 227 228 233 237 239 232 223 221 223 224 227 230 233 239 246 249 251 248 240 234 235 238 237 230 227 226 225 226 229 233 238 247 257 267 275 282 285 289 292 295 299 303 306
198 197 199 201 200 201 203 203 202 202 203 202 198 194 196 199 201 201 202 205 209 214 220 227 230 230 230 230 230 229 231 233 235 233 220 212 217 224 230 238 251 254 240 226 225 230 234 233 227 221 219 221 224 228 232 236 242 248 250 249 246 240 236 237 238 233 229 230 230 228 230 233 239 246 253 261 269 277 283 287 290 293 296 300 303 305
196 196 199 201 201 201 202 201 203 205 206 205 201 194 194 198 200 202 204 205 210 214 216 223 231 233 233 232 231 228 229 230 229 223 218 220 227 233 239 251 260 257 243 229 227 233 235 230 223 218 218 221 226 230 233 238 244 248 249 247 245 242 238 234 232 230 232 234 233 234 237 242 247 252 257 263 271 278 283 287 290 293 296 300 302 304
194 194 198 200 200 200 201 201 203 205 203 202 201 197 195 198 200 204 206 205 210 215 216 218 225 229 230 231 232 231 230 229 228 227 229 231 235 238 245 255 260 253 242 234 234 237 237 231 221 216 218 222 226 228 231 236 241 245 245 244 242 239 233 228 227 231 236 239 239 241 244 249 253 255 260 266 273 279 284 287 290 293 296 299 300 302
192 192 194 198 197 197 202 202 199 199 198 196 197 197 197 199 201 204 207 208 211 216 219 221 223 225 225 226 225 226 228 229 230 232 233 235 240 243 248 256 258 249 240 236 237 237 237 234 225 219 220 222 225 227 229 234 240 243 244 242 239 235 231 230 231 236 240 243 244 245 247 251 255 258 263 268 275 281 285 287 290 293 295 297 298 300
190 190 192 196 196 193 194 195 192 192 193 193 194 197 198 199 201 203 206 210 214 217 221 224 226 226 225 226 226 224 225 229 232 234 236 239 245 248 252 257 257 248 241 236 233 235 238 240 234 226 223 223 224 227 231 236 240 243 243 239 235 234 234 235 238 241 243 244 246 247 250 253 256 260 265 270 276 281 285 287 290 292 294 295 296 299
183 185 190 196 197 195 193 193 193 193 195 194 194 196 198 198 200 202 205 209 212 216 221 227 229 230 230 229 230 229 229 231 234 236 240 245 250 255 259 260 253 245 240 235 232 233 236 237 233 227 225 225 225 228 232 237 241 243 243 239 236 235 237 239 242 244 245 244 246 248 251 254 257 261 266 272 277 281 284 287 291 293 293 294 295 298
178 180 187 193 198 200 200 198 196 196 196 196 195 195 197 197 198 202 206 209 211 213 219 226 229 232 234 234 235 236 235 236 239 241 245 252 259 262 262 257 246 236 232 231 229 229 231 231 230 227 224 224 226 229 232 237 240 243 244 242 239 238 239 241 244 246 247 246 247 249 251 254 257 262 266 271 276 279 282 286 290 292 293 293 294 296
176 178 183 189 193 195 196 195 194 194 195 196 195 194 195 196 197 202 207 209 211 213 215 222 228 231 234 236 239 242 243 243 245 249 253 258 260 256 249 245 240 234 230 228 226 226 227 228 229 228 223 222 226 229 232 237 241 244 245 246 245 243 243 244 245 247 249 249 250 251 252 255 259 262 266 269 273 276 280 283 286 289 290 291 292 294
177 178 179 184 188 188 191 193 193 194 196 196 195 194 196 197 199 203 208 210 212 215 215 218 224 228 230 234 237 241 246 248 250 252 252 249 245 243 242 242 238 232 228 226 226 227 229 230 231 230 225 221 222 227 232 237 242 246 248 249 250 248 247 246 247 248 250 252 253 254 255 258 261 264 267 269 272 275 278 280 283 285 288 289 290 293
178 179 178 181 184 186 191 194 193 195 197 197 196 195 196 199 201 205 209 210 212 215 215 215 219 224 225 228 233 235 237 240 241 240 239 238 241 244 242 237 232 228 225 224 225 227 230 231 232 232 230 224 222 225 231 236 241 245 248 248 249 249 248 247 248 249 251 253 255 256 257 259 262 265 267 270 272 274 277 279 282 284 286 286 288 292
179 180 179 181 183 184 189 193 194 196 196 196 196 196 198 201 203 206 210 211 212 214 214 214 215 218 218 217 219 222 225 228 231 233 237 241 244 239 229 222 222 224 224 224 226 228 229 230 231 234 234 231 227 227 231 236 241 245 248 249 250 250 250 249 249 250 252 254 256 257 258 260 263 265 267 269 271 273 276 278 281 283 284 285 287 291
180 181 181 183 184 184 188 191 193 196 195 194 195 196 199 203 205 207 210 212 214 215 215 215 216 218 218 217 216 216 219 223 227 232 237 236 227 216 209 210 215 219 221 223 226 228 230 231 232 234 235 234 232 232 234 239 243 247 250 251 250 250 250 251 251 252 253 255 257 258 260 262 264 266 267 269 271 273 275 278 280 282 282 284 287 291
184 182 182 185 186 187 190 191 193 196 196 196 197 197 200 205 207 209 212 213 215 216 217 217 218 219 220 221 221 222 222 222 222 223 224 218 208 204 209 222 230 228 225 223 223 225 228 229 231 232 234 235 235 236 238 241 246 249 250 251 251 252 252 253 254 255 256 257 258 260 262 264 265 267 269 270 271 273 275 277 279 280 281 283 287 290
187 185 183 184 185 188 191 192 195 198 198 199 201 200 202 205 207 210 213 214 216 219 219 220 220 220 222 223 225 228 230 231 228 222 220 223 226 229 235 241 241 235 232 229 228 228 228 229 230 232 236 239 240 241 243 244 246 249 250 251 253 254 255 255 257 259 259 260 261 262 263 265 267 269 270 271 271 272 274 276 278 279 281 284 287 288
188 187 184 183 184 187 190 194 199 202 201 203 204 203 204 205 206 208 213 215 217 220 222 223 222 223 224 226 230 233 233 233 232 231 231 235 238 239 241 243 241 239 239 238 235 233 233 234 236 238 241 243 245 247 247 248 248 250 252 253 254 255 255 256 258 260 261 262 263 263 264 265 267 268 269 270 271 272 274 275 277 279 282 284 285 285
191 190 187 186 188 191 194 197 202 205 206 208 208 206 206 206 205 207 211 214 217 219 220 222 223 224 225 227 229 232 232 233 235 237 237 237 237 238 243 245 242 240 240 239 237 235 235 237 240 242 244 245 247 249 250 251 252 253 254 255 256 257 258 258 259 260 262 262 263 264 265 266 267 268 269 270 271 272 274 275 277 280 282 283 282 283
195 195 193 190 190 193 197 200 204 206 208 210 209 207 207 206 205 208 211 213 216 217 216 219 221 221 222 224 227 230 233 236 237 238 239 239 241 245 247 245 241 240 240 240 238 235 235 239 243 246 247 248 248 250 251 252 254 255 256 257 258 259 260 260 260 261 262 262 263 265 266 267 268 269 270 271 272 273 275 276 278 279 280 280 281 282
198 199 198 195 194 196 200 203 207 208 209 210 208 207 208 208 207 208 210 212 215 216 216 220 223 223 223 226 229 232 236 239 241 242 244 246 248 249 249 249 249 248 247 246 244 241 242 246 250 251 251 250 249 249 250 252 254 256 257 259 259 260 260 261 261 261 262 263 264 266 267 268 269 270 270 271 272 273 275 275 277 278 279 279 280 281
200 201 199 198 198 199 201 203 204 205 206 208 207 206 208 210 209 208 210 212 214 215 217 220 224 227 229 230 233 236 240 243 246 249 251 251 252 251 252 252 252 253 254 254 252 249 248 250 252 253 252 250 248 248 249 251 253 255 257 258 259 259 260 260 260 261 262 263 264 266 267 268 269 269 270 271 272 273 274 275 277 278 278 278 279 281
200 201 200 198 197 197 199 201 200 201 203 205 205 205 208 210 209 207 209 213 215 215 217 220 224 229 233 235 237 240 244 248 251 252 251 249 249 249 250 252 253 255 256 256 255 253 252 252 251 251 249 248 248 250 251 253 255 256 256 257 258 259 259 260 261 262 262 263 264 266 267 267 268 269 270 271 272 273 275 277 278 278 278 278 279 280
199 198 196 194 194 198 202 204 204 204 204 203 202 203 207 211 211 210 210 214 215 216 218 220 222 226 232 237 241 244 249 252 253 253 251 250 250 250 251 252 254 255 256 255 255 254 253 252 250 248 248 248 250 253 255 256 257 257 257 258 259 260 260 261 262 262 263 264 265 265 265 266 267 268 269 271 272 274 276 277 278 278 278 278 278 279
210 203 197 197 201 207 209 208 208 210 209 204 200 201 203 207 211 214 215 217 219 221 223 225 226 229 232 237 242 246 249 251 252 254 256 257 256 255 255 255 254 255 255 254 254 254 252 250 248 247 248 250 253 254 256 256 257 258 258 259 260 260 261 261 261 262 263 263 264 264 265 266 267 269 270 272 273 274 275 276 278 278 278 277 278 278
222 219 214 213 215 215 212 210 210 209 210 207 202 203 206 205 206 210 215 218 221 224 227 230 232 234 235 237 239 243 245 247 250 254 256 258 258 258 257 257 256 255 253 252 252 253 253 251 249 248 249 250 252 253 254 256 257 258 259 259 259 259 259 260 261 262 263 264 265 266 267 269 270 272 273 274 275 275 276 276 276 276 276 276 277 278
224 226 225 225 227 224 218 216 215 212 213 212 207 206 207 206 206 209 212 215 219 222 226 230 234 237 238 239 239 241 242 245 249 251 252 253 253 253 254 255 256 255 252 250 250 251 250 249 248 248 248 249 250 252 254 256 258 259 260 259 259 259 260 261 262 263 264 265 266 268 270 271 273 275 276 276 277 277 277 275 274 274 275 275 277 278
221 225 226 227 229 229 224 221 220 220 219 217 211 208 208 209 212 215 215 216 219 223 226 230 233 236 238 239 238 238 239 241 244 245 246 246 246 246 249 251 254 253 251 249 248 249 249 249 249 249 250 250 251 253 254 257 258 259 259 259 259 260 261 262 263 263 264 266 268 270 272 274 275 276 276 277 277 277 276 274 273 274 275 276 278 280
218 221 223 225 226 227 226 224 224 223 223 222 218 215 215 215 215 218 221 226 228 228 228 229 231 233 234 234 235 237 239 240 241 242 243 243 243 244 247 250 252 253 251 250 250 250 250 250 251 252 252 252 252 253 255 257 258 258 259 259 260 260 261 262 263 265 267 269 270 272 274 275 275 276 276 276 276 275 275 275 275 276 278 279 280 282
217 219 220 222 225 226 227 227 226 224 225 227 227 225 224 222 221 228 236 238 234 230 228 228 230 233 236 240 242 244 244 243 242 242 243 243 243 244 246 248 250 250 250 250 249 249 250 252 254 254 253 253 253 253 254 255 256 257 258 259 260 261 262 263 265 267 269 270 272 273 274 274 274 274 275 276 276 276 276 277 277 279 280 281 282 285
215 218 219 221 223 225 226 227 226 225 225 226 228 228 228 228 230 235 240 241 236 230 229 229 231 237 243 247 249 250 249 248 246 246 246 246 246 245 244 245 246 248 250 251 250 249 250 252 253 253 253 253 253 253 253 253 255 256 258 259 261 262 263 265 267 268 269 270 271 271 271 271 272 273 274 275 276 277 278 279 280 282 282 282 284 286
214 216 220 222 223 225 227 228 229 229 229 230 232 233 233 234 234 235 236 238 238 236 235 236 239 242 245 245 245 246 248 248 249 250 250 250 249 246 245 246 247 248 251 253 253 253 251 251 252 253 253 253 253 253 252 253 254 256 258 260 262 263 264 266 266 267 267 268 268 268 269 270 271 272 273 275 277 278 279 280 281 281 281 282 284 284
215 216 219 222 225 227 230 231 232 233 234 235 236 237 236 235 234 233 233 234 235 236 237 239 240 241 242 242 242 242 243 245 247 248 249 249 249 248 248 249 250 250 251 252 253 253 252 251 252 254 254 254 254 253 253 254 255 257 260 262 263 264 264 265 265 265 265 266 266 267 268 269 270 272 274 276 277 279 280 280 280 279 280 281 282 281
217 217 219 221 222 225 229 231 231 232 234 236 237 237 237 234 231 231 232 233 233 234 235 237 238 240 242 243 243 243 243 244 244 245 246 246 246 247 248 248 248 249 249 250 251 251 252 253 253 254 254 254 254 255 256 257 258 259 261 262 263 263 264 264 264 264 265 265 266 267 268 269 271 273 275 276 278 279 279 279 279 279 279 280 280 278
Height
5692 5696 5701 5709 5717 5724 5729 5733 5738 5741 5745 5748 5751 5755 5759 5764 5768 5775 5781 5783 5785 5786 5787 5790 5792 5795 5796 5798 5799 5799 5800 5801 5803 5804 5805 5806 5807 5808 5809 5810 5811 5812 5814 5814 5815 5817 5818 5817 5817 5818 5818 5818 5819 5819 5820 5821 5821 5822 5823 5824 5825 5826 5827 5828 5828 5828 5827 5825 5824 5824 5824 5824 5823 5823 5823 5823 5823 5823 5823 5824 5824 5825 5825 5826 5827 5828
5686 5692 5701 5711 5718 5722 5724 5728 5732 5736 5740 5745 5750 5753 5756 5761 5765 5771 5777 5780 5782 5783 5785 5787 5789 5790 5792 5794 5796 5797 5797 5798 5799 5801 5802 5803 5805 5806 5807 5809 5809 5810 5812 5813 5814 5815 5815 5815 5815 5815 5816 5816 5816 5817 5818 5818 5819 5820 5820 5821 5823 5824 5825 5826 5825 5824 5823 5821 5821 5822 5822 5821 5821 5821 5821 5820 5820 5821 5822 5823 5823 5823 5824 5824 5825 5826
5683 5692 5704 5709 5711 5712 5716 5722 5728 5732 5738 5743 5747 5749 5753 5758 5762 5766 5772 5776 5778 5779 5782 5784 5785 5787 5788 5791 5793 5794 5795 5795 5797 5798 5800 5802 5803 5804 5806 5806 5808 5808 5810 5811 5812 5812 5812 5812 5813 5813 5814 5814 5815 5815 5816 5816 5817 5818 5819 5820 5820 5821 5822 5822 5822 5821 5819 5819 5820 5820 5819 5819 5819 5819 5819 5819 5819 5820 5820 5821 5822 5822 5822 5823 5823 5824
5683 5693 5699 5700 5701 5706 5712 5718 5723 5727 5733 5738 5742 5745 5749 5754 5758 5762 5766 5770 5773 5776 5778 5780 5782 5783 5785 5787 5790 5791 5792 5793 5795 5796 5798 5800 5801 5802 5803 5804 5805 5806 5807 5808 5809 5809 5810 5810 5810 5811 5811 5812 5813 5813 5814 5815 5815 5816 5817 5817 5818 5818 5819 5819 5819 5817 5816 5817 5818 5818 5818 5817 5817 5817 5817 5817 5818 5818 5819 5820 5820 5821 5821 5821 5822 5822
5682 5688 5690 5692 5697 5703 5708 5713 5717 5723 5729 5734 5738 5741 5745 5750 5755 5758 5762 5766 5770 5773 5775 5777 5779 5779 5781 5783 5786 5788 5790 5791 5793 5794 5796 5798 5799 5800 5801 5802 5803 5804 5805 5805 5806 5807 5808 5808 5809 5809 5809 5810 5811 5811 5812 5812 5813 5814 5814 5815 5815 5816 5817 5817 5817 5815 5814 5815 5816 5816 5816 5816 5815 5816 5816 5816 5817 5818 5818 5819 5820 5820 5821 5821 5821 5821
5677 5681 5685 5691 5696 5701 5704 5708 5715 5721 5726 5731 5735 5739 5743 5747 5751 5755 5759 5763 5767 5769 5772 5774 5774 5775 5778 5780 5783 5785 5787 5789 5791 5792 5794 5795 5797 5798 5799 5801 5801 5802 5802 5803 5804 5806 5806 5807 5807 5807 5807 5808 5809 5809 5809 5810 5811 5811 5812 5813 5813 5814 5814 5815 5815 5814 5813 5813 5814 5814 5814 5814 5814 5815 5815 5816 5816 5817 5818 5818 5819 5819 5820 5820 5820 5821
5672 5676 5683 5689 5694 5698 5701 5706 5713 5718 5724 5728 5732 5737 5740 5743 5748 5752 5756 5760 5763 5766 5769 5770 5772 5773 5775 5777 5780 5783 5785 5787 5789 5790 5792 5793 5795 5796 5798 5799 5799 5800 5800 5801 5803 5804 5804 5805 5805 5805 5805 5806 5807 5807 5808 5808 5809 5809 5810 5811 5812 5812 5812 5812 5813 5813 5812 5812 5812 5813 5813 5813 5813 5814 5814 5815 5815 5816 5817 5817 5817 5818 5818 5819 5819 5820
5669 5673 5680 5686 5690 5694 5698 5704 5710 5716 5721 5725 5730 5735 5738 5741 5745 5749 5754 5757 5760 5763 5764 5767 5769 5769 5771 5774 5777 5780 5782 5784 5786 5788 5790 5791 5793 5794 5796 5797 5797 5798 5798 5800 5801 5802 5802 5803 5803 5803 5803 5804 5805 5805 5806 5806 5806 5807 5808 5809 5810 5810 5810 5810 5811 5811 5811 5811 5811 5812 5812 5812 5812 5813 5813 5814 5814 5815 5815 5815 5816 5816 5816 5817 5817 5818
5666 5670 5677 5683 5687 5691 5696 5703 5708 5712 5717 5721 5728 5732 5734 5738 5742 5746 5751 5754 5756 5757 5758 5762 5764 5763 5765 5770 5773 5775 5777 5780 5784 5787 5788 5790 5791 5792 5794 5795 5796 5796 5797 5798 5799 5800 5800 5801 5801 5801 5801 5802 5802 5803 5804 5804 5804 5804 5806 5807 5808 5808 5808 5808 5809 5809 5809 5810 5810 5810 5811 5811 5811 5811 5812 5812 5813 5813 5814 5814 5814 5815 5815 5815 5816 5815
5661 5667 5675 5680 5685 5691 5697 5701 5704 5708 5712 5717 5724 5729 5731 5735 5739 5743 5747 5750 5752 5752 5754 5758 5760 5759 5761 5766 5769 5769 5772 5778 5783 5786 5786 5787 5788 5790 5792 5793 5794 5795 5795 5797 5797 5798 5799 5799 5799 5799 5799 5799 5800 5801 5802 5802 5802 5802 5804 5805 5806 5806 5806 5806 5807 5807 5808 5808 5808 5809 5809 5809 5809 5809 5810 5811 5811 5812 5812 5812 5813 5813 5814 5814 5814 5814
5658 5665 5670 5677 5685 5690 5694 5696 5700 5704 5709 5715 5721 5725 5728 5732 5736 5740 5743 5746 5747 5747 5751 5756 5757 5757 5758 5762 5764 5766 5772 5779 5783 5784 5784 5784 5786 5788 5790 5791 5792 5793 5794 5795 5795 5796 5797 5797 5797 5797 5797 5797 5798 5799 5799 5800 5800 5801 5802 5803 5804 5804 5804 5804 5805 5805 5806 5806 5806 5806 5806 5807 5807 5807 5808 5809 5809 5810 5810 5811 5812 5812 5813 5813 5813 5812
5656 5661 5668 5676 5681 5684 5688 5692 5697 5701 5705 5712 5718 5721 5725 5729 5733 5736 5739 5742 5742 5744 5751 5754 5755 5754 5752 5756 5763 5766 5772 5777 5779 5780 5781 5782 5784 5786 5788 5789 5790 5791 5792 5793 5794 5794 5795 5795 5795 5795 5795 5795 5796 5797 5797 5798 5799 5799 5801 5802 5802 5802 5802 5802 5803 5803 5804 5804 5804 5804 5804 5804 5805 5805 5806 5807 5807 5808 5809 5810 5810 5811 5811 5811 5811 5811
5654 5660 5667 5670 5673 5678 5683 5687 5692 5696 5701 5708 5713 5716 5721 5725 5728 5731 5734 5738 5740 5744 5749 5751 5751 5749 5748 5754 5762 5766 5771 5774 5776 5778 5778 5779 5781 5784 5785 5787 5788 5789 5789 5791 5792 5792 5793 5793 5793 5794 5794 5794 5794 5795 5796 5796 5797 5798 5799 5800 5800 5800 5800 5800 5801 5801 5801 5802 5803 5803 5803 5803 5803 5804 5804 5805 5806 5807 5808 5808 5809 5810 5810 5810 5809 5808
5651 5657 5660 5663 5669 5675 5679 5683 5687 5691 5696 5702 5707 5711 5715 5718 5722 5726 5730 5735 5738 5742 5746 5748 5747 5744 5745 5753 5759 5764 5769 5771 5773 5775 5775 5776 5779 5781 5783 5784 5785 5787 5788 5789 5790 5790 5791 5791 5791 5792 5792 5792 5793 5794 5794 5795 5796 5796 5797 5797 5797 5798 5798 5798 5799 5799 5800 5800 5801 5801 5801 5801 5802 5802 5803 5804 5805 5805 5806 5807 5808 5808 5808 5807 5807 5806
5649 5653 5658 5664 5670 5673 5677 5682 5687 5691 5695 5700 5704 5708 5711 5714 5718 5723 5728 5731 5735 5739 5742 5744 5742 5740 5743 5751 5757 5763 5767 5767 5768 5770 5771 5773 5776 5779 5781 5782 5784 5785 5786 5787 5787 5788 5788 5788 5789 5789 5790 5791 5792 5792 5793 5794 5794 5795 5795 5795 5796 5796 5796 5796 5797 5797 5798 5799 5799 5800 5800 5800 5801 5801 5802 5803 5803 5804 5805 5806 5806 5806 5805 5805 5804 5804
5649 5654 5661 5665 5669 5672 5675 5680 5685 5689 5694 5699 5703 5705 5708 5713 5719 5723 5727 5730 5734 5736 5738 5739 5738 5738 5744 5750 5755 5761 5762 5763 5765 5766 5768 5771 5774 5777 5779 5780 5782 5783 5784 5785 5785 5786 5786 5786 5787 5787 5788 5789 5790 5791 5792 5792 5793 5793 5793 5794 5794 5794 5795 5795 5796 5796 5797 5797 5798 5798 5799 5799 5800 5800 5801 5802 5802 5803 5804 5804 5804 5803 5803 5802 5802 5802
5648 5654 5659 5662 5667 5671 5674 5678 5682 5686 5690 5696 5699 5701 5706 5714 5718 5722 5726 5729 5732 5733 5733 5736 5737 5739 5743 5747 5752 5757 5758 5760 5762 5764 5767 5770 5773 5775 5777 5778 5780 5781 5783 5783 5784 5784 5784 5784 5785 5785 5786 5787 5788 5789 5790 5791 5791 5791 5792 5793 5793 5793 5794 5794 5795 5795 5796 5796 5797 5798 5798 5799 5799 5800 5800 5801 5801 5801 5802 5802 5801 5801 5801 5800 5800 5800
5646 5651 5656 5660 5665 5670 5673 5677 5681 5684 5688 5693 5696 5700 5706 5712 5715 5719 5723 5726 5728 5729 5730 5733 5736 5737 5740 5744 5748 5753 5755 5758 5761 5763 5766 5769 5772 5774 5775 5776 5778 5779 5781 5781 5782 5782 5782 5782 5783 5784 5785 5785 5786 5787 5788 5789 5789 5790 5790 5791 5792 5792 5792 5793 5794 5794 5795 5796 5796 5797 5797 5798 5798 5799 5799 5799 5800 5800 5799 5799 5799 5799 5798 5798 5798 5798
5642 5648 5654 5658 5663 5668 5671 5674 5677 5681 5687 5692 5697 5701 5705 5708 5710 5715 5719 5722 5724 5726 5727 5730 5733 5735 5737 5741 5746 5751 5754 5757 5759 5761 5765 5769 5771 5772 5773 5774 5776 5777 5778 5779 5780 5780 5780 5780 5781 5782 5783 5783 5784 5785 5786 5787 5788 5788 5789 5789 5790 5791 5791 5792 5793 5794 5794 5795 5796 5796 5796 5797 5797 5797 5797 5798 5798 5798 5797 5797 5797 5797 5797 5796 5796 5795
5639 5646 5652 5656 5661 5665 5667 5670 5673 5678 5683 5689 5693 5698 5703 5707 5710 5713 5716 5719 5722 5724 5726 5728 5730 5732 5735 5740 5744 5749 5753 5756 5758 5761 5765 5768 5769 5771 5772 5773 5774 5775 5776 5777 5778 5778 5778 5778 5778 5780 5780 5781 5782 5783 5784 5785 5785 5786 5787 5787 5788 5789 5790 5791 5791 5792 5793 5794 5794 5795 5795 5795 5795 5795 5796 5796 5796 5796 5796 5796 5795 5795 5795 5794 5794 5793
5638 5644 5649 5653 5658 5660 5663 5668 5674 5678 5681 5683 5687 5692 5699 5704 5708 5712 5715 5718 5720 5723 5725 5727 5728 5730 5735 5739 5743 5747 5751 5754 5757 5761 5764 5766 5768 5769 5771 5772 5773 5774 5774 5775 5775 5775 5775 5776 5776 5777 5778 5779 5780 5781 5782 5783 5783 5784 5785 5786 5787 5787 5788 5789 5790 5791 5791 5792 5792 5793 5793 5793 5793 5794 5794 5794 5794 5794 5794 5794 5793 5793 5792 5792 5791 5791
5637 5643 5647 5650 5654 5659 5664 5671 5676 5678 5680 5683 5687 5691 5695 5699 5704 5708 5711 5714 5718 5721 5723 5725 5727 5730 5734 5738 5741 5745 5749 5752 5755 5759 5761 5763 5766 5768 5769 5770 5771 5772 5773 5773 5773 5773 5773 5774 5775 5776 5776 5777 5778 5780 5781 5781 5781 5782 5783 5784 5785 5786 5787 5787 5788 5789 5790 5790 5791 5791 5792 5792 5792 5792 5792 5792 5793 5792 5792 5792 5791 5790 5790 5790 5789 5788
5637 5642 5645 5650 5655 5661 5666 5670 5673 5676 5680 5684 5688 5692 5694 5697 5701 5705 5708 5712 5716 5719 5721 5723 5725 5729 5733 5736 5740 5743 5747 5750 5753 5756 5758 5761 5763 5765 5767 5768 5769 5770 5771 5771 5772 5772 5772 5772 5773 5774 5774 5775 5776 5778 5779 5779 5779 5780 5781 5782 5783 5784 5785 5786 5787 5787 5788 5788 5789 5789 5790 5790 5790 5790 5790 5790 5791 5790 5790 5789 5789 5788 5788 5787 5787 5786
5636 5641 5645 5650 5655 5660 5664 5667 5671 5674 5677 5681 5685 5690 5694 5697 5700 5705 5709 5713 5716 5717 5720 5722 5724 5727 5731 5734 5738 5741 5744 5747 5750 5752 5755 5758 5760 5763 5765 5766 5767 5768 5768 5769 5770 5770 5770 5770 5771 5772 5773 5774 5775 5776 5777 5777 5777 5778 5780 5781 5781 5782 5783 5784 5785 5785 5786 5786 5787 5787 5788 5788 5788 5788 5788 5788 5788 5788 5787 5787 5786 5786 5785 5785 5784 5784
5637 5642 5646 5648 5651 5655 5658 5663 5667 5670 5673 5678 5683 5688 5692 5696 5700 5704 5708 5712 5714 5716 5718 5721 5723 5726 5730 5733 5736 5738 5741 5744 5747 5749 5752 5755 5758 5760 5762 5764 5765 5766 5766 5767 5768 5768 5768 5769 5770 5770 5771 5772 5773 5774 5775 5775 5776 5777 5778 5779 5779 5780 5781 5782 5783 5783 5784 5784 5784 5785 5785 5785 5785 5785 5786 5786 5786 5785 5785 5784 5784 5783 5783 5782 5782 5781
5638 5642 5645 5647 5650 5651 5654 5658 5663 5667 5672 5677 5681 5685 5690 5694 5697 5701 5705 5707 5710 5713 5716 5719 5721 5725 5728 5731 5733 5736 5739 5742 5744 5747 5749 5752 5755 5758 5760 5761 5763 5763 5764 5764 5765 5766 5766 5767 5768 5769 5769 5770 5771 5772 5773 5773 5774 5775 5776 5776 5777 5778 5779 5780 5780 5781 5782 5782 5782 5782 5782 5783 5783 5783 5783 5783 5783 5783 5782 5781 5781 5781 5780 5780 5779 5778
5635 5639 5643 5647 5650 5653 5658 5662 5665 5669 5672 5675 5678 5683 5687 5691 5694 5698 5701 5704 5707 5712 5715 5717 5720 5724 5726 5729 5732 5734 5737 5740 5742 5745 5747 5750 5753 5755 5757 5758 5760 5760 5761 5761 5762 5763 5764 5764 5765 5766 5767 5768 5769 5770 5770 5771 5771 5772 5773 5774 5775 5776 5777 5777 5778 5778 5779 5779 5780 5780 5780 5780 5780 5781 5781 5781 5780 5780 5779 5778 5778 5778 5777 5777 5776 5775
5634 5638 5642 5646 5650 5655 5660 5663 5665 5668 5671 5674 5678 5681 5685 5689 5692 5695 5699 5702 5706 5710 5713 5716 5719 5722 5725 5727 5730 5733 5735 5738 5740 5743 5746 5749 5751 5752 5753 5754 5756 5757 5758 5759 5760 5760 5761 5762 5763 5764 5765 5766 5767 5768 5768 5769 5769 5770 5771 5772 5773 5774 5774 5775 5775 5776 5776 5776 5777 5777 5777 5778 5778 5778 5778 5778 5778 5777 5776 5776 5775 5775 5775 5774 5773 5772
5634 5637 5641 5646 5650 5654 5657 5661 5664 5667 5670 5673 5678 5681 5685 5688 5691 5694 5697 5701 5704 5708 5712 5715 5717 5720 5724 5726 5729 5732 5734 5737 5739 5742 5745 5746 5748 5749 5750 5751 5752 5754 5755 5756 5757 5758 5759 5760 5760 5761 5762 5763 5764 5765 5766 5766 5767 5767 5769 5770 5770 5771 5772 5772 5773 5773 5773 5774 5774 5774 5775 5775 5775 5775 5775 5775 5775 5774 5774 5773 5772 5772 5772 5771 5770 5769
5634 5637 5641 5645 5650 5653 5655 5659 5662 5665 5668 5673 5677 5681 5684 5687 5690 5693 5696 5699 5703 5706 5710 5713 5716 5718 5722 5724 5727 5730 5732 5735 5737 5740 5742 5744 5745 5747 5748 5749 5750 5751 5752 5754 5755 5755 5756 5757 5758 5759 5760 5761 5762 5762 5763 5764 5764 5765 5766 5767 5768 5768 5769 5769 5770 5770 5771 5771 5771 5771 5772 5772 5772 5772 5772 5772 5772 5771 5771 5770 5769 5769 5768 5767 5766 5765
5634 5638 5641 5645 5649 5652 5654 5657 5660 5663 5667 5671 5675 5680 5683 5686 5689 5692 5695 5698 5701 5704 5707 5711 5714 5717 5719 5722 5725 5727 5730 5732 5735 5737 5740 5742 5744 5744 5745 5746 5747 5748 5750 5751 5752 5753 5754 5754 5755 5757 5758 5759 5759 5760 5760 5761 5762 5762 5763 5764 5765 5765 5766 5766 5767 5767 5768 5768 5769 5769 5769 5769 5769 5769 5769 5769 5769 5768 5767 5766 5766 5766 5765 5764 5763 5761
5634 5638 5641 5645 5648 5651 5653 5656 5659 5662 5666 5670 5673 5677 5681 5684 5687 5690 5693 5696 5699 5703 5706 5708 5712 5715 5717 5720 5723 5725 5728 5731 5734 5737 5739 5741 5741 5742 5743 5745 5745 5747 5748 5749 5750 5751 5751 5752 5753 5754 5755 5756 5757 5757 5758 5758 5759 5760 5761 5762 5762 5762 5763 5763 5764 5764 5765 5766 5766 5766 5766 5766 5766 5766 5766 5766 5765 5764 5763 5763 5763 5762 5761 5760 5759 5757
5635 5638 5641 5645 5648 5650 5653 5656 5658 5661 5665 5668 5672 5676 5679 5682 5685 5688 5692 5695 5698 5701 5704 5707 5710 5714 5716 5718 5721 5724 5727 5730 5733 5736 5738 5739 5740 5741 5742 5743 5744 5745 5746 5747 5748 5748 5749 5750 5751 5752 5753 5754 5754 5755 5756 5756 5757 5757 5758 5758 5759 5759 5760 5760 5761 5762 5762 5763 5763 5763 5763 5762 5762 5762 5762 5762 5761 5760 5760 5759 5759 5758 5757 5756 5755 5754
5636 5638 5641 5644 5647 5650 5652 5655 5658 5660 5663 5667 5671 5674 5677 5680 5684 5687 5690 5694 5697 5699 5702 5705 5709 5712 5714 5716 5719 5722 5725 5729 5732 5735 5737 5738 5739 5740 5740 5741 5742 5743 5744 5745 5745 5746 5747 5748 5749 5750 5750 5751 5752 5753 5753 5754 5755 5755 5755 5755 5756 5757 5757 5758 5758 5758 5759 5759 5759 5759 5759 5759 5759 5758 5758 5757 5757 5756 5756 5755 5755 5754 5753 5752 5751 5750
5636 5639 5641 5643 5646 5649 5652 5655 5657 5659 5662 5666 5669 5673 5676 5679 5683 5686 5689 5692 5694 5697 5700 5703 5706 5709 5712 5715 5717 5720 5724 5727 5729 5732 5734 5735 5736 5737 5738 5739 5740 5741 5742 5743 5743 5744 5745 5745 5746 5747 5748 5748 5749 5750 5751 5751 5751 5752 5752 5752 5753 5754 5754 5754 5755 5754 5755 5755 5755 5755 5755 5755 5754 5754 5754 5753 5753 5753 5752 5752 5751 5750 5749 5748 5747 5746
5636 5639 5641 5644 5646 5649 5651 5654 5656 5659 5662 5665 5668 5672 5675 5678 5682 5685 5688 5690 5692 5695 5698 5700 5703 5707 5710 5712 5715 5717 5720 5723 5725 5728 5730 5731 5733 5734 5736 5737 5738 5738 5739 5740 5741 5741 5742 5743 5744 5745 5745 5746 5746 5747 5747 5748 5748 5748 5749 5749 5750 5750 5750 5751 5751 5751 5751 5750 5750 5750 5750 5750 5750 5750 5749 5749 5749 5749 5748 5747 5747 5746 5745 5744 5743 5742
5637 5639 5642 5644 5646 5649 5651 5653 5656 5659 5662 5664 5667 5671 5674 5677 5681 5684 5686 5689 5691 5693 5696 5698 5700 5704 5707 5709 5711 5714 5716 5718 5721 5724 5727 5729 5730 5732 5733 5734 5734 5736 5737 5737 5738 5738 5739 5740 5741 5742 5742 5743 5743 5744 5744 5744 5744 5744 5745 5745 5746 5746 5747 5747 5747 5747 5746 5746 5746 5746 5746 5746 5746 5746 5745 5745 5744 5744 5744 5743 5742 5742 5741 5740 5739 5738
5636 5639 5641 5643 5645 5648 5650 5653 5655 5658 5660 5662 5665 5669 5672 5676 5679 5682 5685 5687 5689 5691 5694 5696 5698 5701 5704 5706 5708 5711 5714 5715 5718 5721 5724 5726 5728 5729 5730 5730 5731 5733 5734 5734 5735 5735 5736 5736 5737 5738 5739 5739 5740 5740 5740 5740 5740 5741 5741 5742 5742 5742 5742 5743 5743 5742 5742 5742 5742 5742 5742 5742 5742 5742 5741 5741 5740 5739 5739 5738 5738 5737 5736 5735 5735 5734
5634 5637 5640 5642 5645 5647 5649 5651 5653 5656 5658 5660 5663 5667 5670 5674 5677 5681 5684 5685 5686 5689 5692 5694 5696 5698 5701 5704 5707 5709 5711 5712 5715 5719 5722 5724 5725 5726 5726 5727 5727 5728 5729 5730 5730 5731 5732 5732 5733 5734 5735 5735 5735 5736 5736 5736 5736 5737 5737 5738 5738 5738 5738 5738 5738 5738 5738 5738 5738 5738 5738 5738 5737 5737 5737 5736 5736 5735 5734 5734 5733 5733 5732 5731 5731 5730
5632 5635 5638 5641 5643 5646 5648 5650 5652 5655 5657 5659 5662 5665 5668 5672 5675 5679 5681 5681 5684 5687 5690 5693 5695 5697 5699 5701 5704 5706 5707 5710 5713 5717 5718 5719 5720 5721 5722 5722 5723 5723 5724 5724 5725 5726 5727 5728 5729 5730 5730 5731 5731 5732 5732 5732 5733 5733 5733 5734 5734 5734 5734 5734 5734 5734 5734 5734 5734 5734 5734 5733 5733 5733 5732 5732 5731 5731 5730 5729 5729 5728 5727 5727 5726 5725
5632 5635 5638 5640 5643 5645 5647 5649 5652 5654 5656 5658 5661 5663 5666 5670 5673 5676 5677 5679 5683 5686 5688 5691 5693 5694 5696 5698 5701 5703 5705 5708 5710 5711 5712 5714 5716 5717 5718 5718 5718 5718 5719 5719 5720 5721 5723 5724 5724 5725 5726 5726 5727 5728 5728 5728 5728 5729 5729 5730 5730 5730 5730 5730 5730 5730 5729 5730 5730 5730 5729 5728 5728 5728 5728 5728 5727 5726 5725 5725 5724 5724 5723 5723 5722 5721
5632 5635 5638 5641 5643 5645 5647 5649 5651 5652 5655 5658 5661 5663 5665 5668 5671 5673 5676 5679 5682 5684 5686 5688 5690 5692 5694 5696 5698 5700 5703 5704 5704 5706 5707 5709 5711 5712 5713 5713 5713 5714 5714 5715 5715 5716 5718 5719 5720 5720 5721 5722 5723 5723 5723 5724 5724 5724 5725 5725 5725 5725 5725 5725 5725 5725 5725 5725 5725 5725 5724 5724 5724 5723 5723 5723 5722 5721 5721 5720 5720 5719 5719 5718 5717 5716
5634 5636 5639 5641 5642 5645 5647 5649 5650 5652 5654 5657 5660 5663 5665 5668 5670 5673 5675 5678 5680 5682 5684 5686 5687 5689 5691 5693 5695 5697 5699 5699 5700 5702 5704 5705 5706 5707 5707 5708 5708 5709 5709 5710 5711 5711 5713 5714 5715 5716 5717 5717 5718 5718 5719 5719 5720 5720 5721 5721 5720 5720 5720 5720 5720 5721 5721 5721 5720 5720 5720 5719 5719 5719 5718 5718 5717 5717 5716 5715 5715 5715 5714 5714 5713 5712
5634 5636 5638 5640 5642 5644 5646 5648 5650 5652 5654 5655 5659 5662 5664 5667 5669 5671 5673 5675 5678 5680 5681 5683 5684 5685 5687 5690 5691 5693 5694 5695 5697 5699 5700 5701 5702 5703 5703 5703 5703 5704 5705 5705 5706 5707 5708 5709 5710 5711 5712 5713 5713 5714 5714 5715 5715 5716 5716 5716 5716 5716 5716 5716 5716 5716 5716 5716 5715 5715 5715 5715 5714 5714 5713 5713 5712 5712 5712 5711 5710 5710 5710 5709 5708 5707
5632 5635 5637 5639 5641 5643 5646 5648 5650 5651 5653 5655 5657 5660 5662 5665 5668 5669 5671 5673 5675 5677 5678 5680 5681 5682 5684 5685 5687 5688 5690 5691 5693 5694 5695 5697 5698 5698 5699 5699 5699 5700 5701 5701 5702 5703 5704 5705 5706 5707 5708 5709 5709 5710 5710 5710 5711 5711 5711 5711 5711 5712 5712 5712 5712 5712 5711 5711 5711 5710 5710 5710 5709 5709 5708 5708 5708 5707 5707 5707 5706 5705 5705 5705 5704 5703
5631 5633 5635 5637 5639 5641 5644 5646 5648 5650 5652 5653 5656 5659 5661 5664 5666 5668 5670 5672 5673 5675 5676 5677 5678 5679 5680 5682 5683 5684 5686 5687 5689 5690 5691 5692 5693 5694 5695 5695 5696 5696 5697 5698 5698 5699 5700 5701 5702 5703 5704 5704 5705 5706 5706 5706 5706 5707 5707 5707 5707 5707 5707 5707 5707 5707 5707 5706 5706 5706 5705 5705 5705 5704 5704 5703 5703 5703 5703 5702 5701 5701 5700 5700 5699 5698
5629 5631 5633 5635 5637 5639 5641 5644 5646 5648 5650 5652 5654 5657 5659 5662 5664 5666 5667 5669 5671 5672 5674 5675 5675 5676 5677 5678 5680 5681 5682 5683 5684 5686 5686 5687 5689 5690 5691 5692 5692 5693 5693 5694 5695 5695 5696 5697 5698 5699 5699 5700 5701 5701 5701 5702 5702 5702 5702 5702 5703 5703 5703 5703 5703 5702 5702 5702 5701 5701 5701 5700 5700 5700 5699 5699 5699 5698 5698 5697 5697 5697 5696 5695 5694 5693
5628 5630 5631 5633 5634 5636 5639 5641 5643 5646 5648 5650 5652 5655 5657 5659 5661 5662 5663 5665 5667 5669 5671 5671 5672 5673 5674 5675 5676 5677 5678 5679 5680 5681 5683 5684 5685 5686 5687 5688 5689 5689 5690 5690 5691 5691 5692 5693 5694 5694 5695 5695 5696 5696 5697 5697 5697 5698 5698 5698 5699 5699 5699 5699 5698 5698 5697 5697 5697 5697 5696 5696 5695 5695 5695 5694 5694 5694 5694 5693 5692 5692 5691 5690 5689 5689
5627 5628 5630 5631 5632 5634 5636 5638 5641 5644 5646 5648 5650 5652 5654 5656 5657 5659 5660 5662 5664 5666 5667 5668 5669 5669 5670 5671 5672 5673 5674 5675 5676 5677 5679 5680 5681 5683 5684 5684 5685 5686 5687 5687 5687 5688 5689 5689 5690 5690 5691 5691 5691 5692 5692 5693 5693 5694 5694 5694 5694 5694 5694 5694 5694 5693 5693 5692 5692 5692 5692 5691 5691 5690 5690 5689 5689 5689 5689 5688 5687 5687 5686 5685 5684 5684
5625 5627 5628 5629 5631 5633 5634 5637 5639 5642 5644 5646 5647 5649 5650 5652 5654 5656 5657 5659 5660 5662 5663 5664 5665 5666 5667 5667 5668 5669 5670 5671 5672 5673 5675 5676 5677 5678 5680 5681 5682 5682 5683 5683 5683 5684 5685 5685 5686 5686 5686 5686 5687 5687 5688 5689 5689 5689 5689 5690 5690 5690 5690 5690 5689 5689 5688 5688 5687 5687 5687 5686 5686 5685 5685 5685 5684 5684 5683 5683 5682 5682 5681 5680 5680 5679
5625 5626 5626 5628 5629 5631 5632 5634 5637 5639 5641 5643 5644 5645 5647 5648 5650 5652 5653 5655 5657 5658 5660 5661 5662 5662 5663 5664 5665 5666 5667 5667 5668 5670 5671 5672 5673 5674 5675 5676 5677 5678 5679 5679 5680 5680 5681 5681 5682 5682 5682 5682 5682 5683 5684 5684 5685 5685 5685 5685 5685 5685 5685 5685 5684 5684 5683 5683 5682 5682 5682 5681 5681 5680 5680 5680 5679 5679 5678 5678 5677 5677 5676 5675 5675 5674